Location: downtown San Diego
(32.7310°N, 117.1990°W)
Time: 15:55:30
(UTC-07:00)

Envisat - Pass Details

Date: 14 June 2018
Orbit: 764 x 766 km, 98.2° (Epoch: 20 June)

Event Time Altitude Azimuth Distance (km) Brightness Sun altitude
Rises 20:19:02 0° 172° (S) 3,215 5.8 -4.7°
Reaches altitude 10° 20:21:21 10° 175° (S) 2,293 5.1 -5.1°
Maximum altitude 20:26:22 70° 258° (WSW) 815 3.4 -6.0°
Drops below altitude 10° 20:31:26 10° 342° (NNW) 2,305 6.3 -6.9°
Sets 20:33:46 0° 345° (NNW) 3,234 7.1 -7.3°
